Time,TemperatureF,DewpointF,PressureIn,WindDirection,WindDirectionDegrees,WindSpeedMPH,WindSpeedGustMPH,Humidity,HourlyPrecipIn,Conditions,Clouds,dailyrainin,SoftwareType,DateUTC
2013-03-03 00:01:00,37.9,27.2,30.22,West,278,0.0,15.0,65,0.00,,,0.00,Wunderground v.1.15,2013-03-03 07:01:00,
2013-03-03 00:06:00,37.8,27.1,30.22,West,278,0.0,15.0,65,0.00,,,0.00,Wunderground v.1.15,2013-03-03 07:06:00,
2013-03-03 00:11:00,37.3,27.3,30.22,SW,236,0.0,15.0,67,0.00,,,0.00,Wunderground v.1.15,2013-03-03 07:11:00,
2013-03-03 00:17:00,37.4,27.4,30.22,WSW,245,0.0,15.0,67,0.00,,,0.00,Wunderground v.1.15,2013-03-03 07:17:00,
2013-03-03 00:23:00,38.0,27.6,30.22,WNW,283,0.0,15.0,66,0.00,,,0.00,Wunderground v.1.15,2013-03-03 07:23:00,
2013-03-03 00:28:00,38.0,28.0,30.22,WNW,283,0.0,15.0,67,0.00,,,0.00,Wunderground v.1.15,2013-03-03 07:28:00,
2013-03-03 00:33:00,38.0,28.0,30.22,WNW,288,0.0,15.0,67,0.00,,,0.00,Wunderground v.1.15,2013-03-03 07:33:00,
2013-03-03 00:39:00,38.1,28.5,30.22,West,271,0.0,15.0,68,0.00,,,0.00,Wunderground v.1.15,2013-03-03 07:39:00,
2013-03-03 00:45:00,37.7,28.4,30.21,West,274,0.0,15.0,69,0.00,,,0.00,Wunderground v.1.15,2013-03-03 07:45:00,
2013-03-03 00:50:00,38.2,28.2,30.21,WNW,292,0.0,15.0,67,0.00,,,0.00,Wunderground v.1.15,2013-03-03 07:50:00,
2013-03-03 00:55:00,38.3,28.7,30.22,WNW,289,1.0,15.0,68,0.00,,,0.00,Wunderground v.1.15,2013-03-03 07:55:00,
2013-03-03 01:01:00,38.3,28.3,30.22,WNW,289,0.0,15.0,67,0.00,,,0.00,Wunderground v.1.15,2013-03-03 08:01:00,
2013-03-03 01:06:00,38.1,28.1,30.22,WNW,289,0.0,15.0,67,0.00,,,0.00,Wunderground v.1.15,2013-03-03 08:06:00,
2013-03-03 01:12:00,37.7,27.7,30.21,SSE,166,0.0,15.0,67,0.00,,,0.00,Wunderground v.1.15,2013-03-03 08:12:00,
2013-03-03 01:17:00,37.7,27.7,30.21,SSE,167,1.0,15.0,67,0.00,,,0.00,Wunderground v.1.15,2013-03-03 08:17:00,
2013-03-03 01:22:00,37.9,27.5,30.21,NW,314,1.0,15.0,66,0.00,,,0.00,Wunderground v.1.15,2013-03-03 08:22:00,
2013-03-03 01:28:00,37.7,27.4,30.21,North,4,1.0,15.0,66,0.00,,,0.00,Wunderground v.1.15,2013-03-03 08:28:00,
2013-03-03 01:33:00,37.7,27.7,30.21,NW,314,0.0,15.0,67,0.00,,,0.00,Wunderground v.1.15,2013-03-03 08:33:00,
2013-03-03 01:38:00,37.9,27.5,30.21,WNW,286,0.0,15.0,66,0.00,,,0.00,Wunderground v.1.15,2013-03-03 08:38:00,
2013-03-03 01:43:00,37.8,27.8,30.21,ENE,64,0.0,15.0,67,0.00,,,0.00,Wunderground v.1.15,2013-03-03 08:43:00,
2013-03-03 01:49:00,37.7,27.7,30.20,SSE,161,0.0,15.0,67,0.00,,,0.00,Wunderground v.1.15,2013-03-03 08:49:00,
2013-03-03 01:54:00,37.4,27.8,30.20,North,358,0.0,15.0,68,0.00,,,0.00,Wunderground v.1.15,2013-03-03 08:54:00,
2013-03-03 01:59:00,37.2,27.6,30.20,WNW,286,0.0,15.0,68,0.00,,,0.00,Wunderground v.1.15,2013-03-03 08:59:00,
2013-03-03 02:05:00,36.9,27.3,30.20,WNW,286,0.0,15.0,68,0.00,,,0.00,Wunderground v.1.15,2013-03-03 09:05:00,
2013-03-03 02:10:00,36.9,27.7,30.20,SSE,168,0.0,15.0,69,0.00,,,0.00,Wunderground v.1.15,2013-03-03 09:10:00,
2013-03-03 02:16:00,36.7,27.5,30.20,NW,309,0.0,15.0,69,0.00,,,0.00,Wunderground v.1.15,2013-03-03 09:16:00,
2013-03-03 02:22:00,36.7,27.8,30.19,SW,219,0.0,15.0,70,0.00,,,0.00,Wunderground v.1.15,2013-03-03 09:22:00,
2013-03-03 02:27:00,36.6,27.7,30.19,South,169,0.0,15.0,70,0.00,,,0.00,Wunderground v.1.15,2013-03-03 09:27:00,
2013-03-03 02:32:00,36.5,27.6,30.20,NNE,15,0.0,15.0,70,0.00,,,0.00,Wunderground v.1.15,2013-03-03 09:32:00,
2013-03-03 02:38:00,36.6,27.7,30.19,South,172,0.0,15.0,70,0.00,,,0.00,Wunderground v.1.15,2013-03-03 09:38:00,
2013-03-03 02:43:00,37.2,28.0,30.19,SSE,160,1.0,15.0,69,0.00,,,0.00,Wunderground v.1.15,2013-03-03 09:43:00,
2013-03-03 02:49:00,37.5,27.9,30.19,South,169,2.0,15.0,68,0.00,,,0.00,Wunderground v.1.15,2013-03-03 09:49:00,
2013-03-03 02:54:00,37.8,28.5,30.19,South,176,2.0,15.0,69,0.00,,,0.00,Wunderground v.1.15,2013-03-03 09:54:00,
2013-03-03 02:59:00,38.3,29.0,30.18,South,177,3.0,15.0,69,0.00,,,0.00,Wunderground v.1.15,2013-03-03 09:59:00,
2013-03-03 03:05:00,38.7,29.8,30.18,South,176,3.0,15.0,70,0.00,,,0.00,Wunderground v.1.15,2013-03-03 10:05:00,
2013-03-03 03:10:00,38.6,30.0,30.18,South,174,2.0,15.0,71,0.00,,,0.00,Wunderground v.1.15,2013-03-03 10:10:00,
2013-03-03 03:16:00,38.9,30.3,30.18,SSE,166,3.0,15.0,71,0.00,,,0.00,Wunderground v.1.15,2013-03-03 10:16:00,
2013-03-03 03:21:00,38.8,30.2,30.18,South,169,2.0,15.0,71,0.00,,,0.00,Wunderground v.1.15,2013-03-03 10:21:00,
2013-03-03 03:26:00,38.7,30.4,30.18,SSE,155,2.0,15.0,72,0.00,,,0.00,Wunderground v.1.15,2013-03-03 10:26:00,
2013-03-03 03:31:00,38.4,30.5,30.17,SSE,158,1.0,15.0,73,0.00,,,0.00,Wunderground v.1.15,2013-03-03 10:31:00,
2013-03-03 03:37:00,38.6,31.0,30.17,South,170,1.0,15.0,74,0.00,,,0.00,Wunderground v.1.15,2013-03-03 10:37:00,
2013-03-03 03:43:00,38.6,30.7,30.17,SSE,164,1.0,15.0,73,0.00,,,0.00,Wunderground v.1.15,2013-03-03 10:43:00,
2013-03-03 03:49:00,38.8,30.5,30.17,SSE,155,2.0,15.0,72,0.00,,,0.00,Wunderground v.1.15,2013-03-03 10:49:00,
2013-03-03 03:55:00,38.5,30.6,30.17,SSE,163,2.0,15.0,73,0.00,,,0.00,Wunderground v.1.15,2013-03-03 10:55:00,
2013-03-03 04:01:00,38.4,30.5,30.18,SSE,160,1.0,15.0,73,0.00,,,0.00,Wunderground v.1.15,2013-03-03 11:01:00,
2013-03-03 04:06:00,38.4,30.5,30.18,SSE,164,1.0,15.0,73,0.00,,,0.00,Wunderground v.1.15,2013-03-03 11:06:00,
2013-03-03 04:12:00,38.2,30.3,30.17,SE,146,1.0,15.0,73,0.00,,,0.00,Wunderground v.1.15,2013-03-03 11:12:00,
2013-03-03 04:17:00,38.3,30.4,30.18,South,171,2.0,15.0,73,0.00,,,0.00,Wunderground v.1.15,2013-03-03 11:17:00,
2013-03-03 04:23:00,38.8,30.5,30.18,SSE,162,3.0,15.0,72,0.00,,,0.00,Wunderground v.1.15,2013-03-03 11:23:00,
2013-03-03 04:28:00,38.9,30.6,30.18,ENE,75,2.0,15.0,72,0.00,,,0.00,Wunderground v.1.15,2013-03-03 11:28:00,
2013-03-03 04:34:00,38.2,30.0,30.18,ESE,113,1.0,15.0,72,0.00,,,0.00,Wunderground v.1.15,2013-03-03 11:34:00,
2013-03-03 04:39:00,38.0,29.4,30.18,SSE,162,1.0,15.0,71,0.00,,,0.00,Wunderground v.1.15,2013-03-03 11:39:00,
2013-03-03 04:44:00,38.4,29.1,30.18,SSE,163,2.0,15.0,69,0.00,,,0.00,Wunderground v.1.15,2013-03-03 11:44:00,
2013-03-03 04:49:00,38.6,29.3,30.18,South,170,3.0,15.0,69,0.00,,,0.00,Wunderground v.1.15,2013-03-03 11:49:00,
2013-03-03 04:55:00,38.8,29.1,30.18,SSE,166,4.0,15.0,68,0.00,,,0.00,Wunderground v.1.15,2013-03-03 11:55:00,
2013-03-03 05:01:00,38.8,29.1,30.17,SSE,166,4.0,15.0,68,0.00,,,0.00,Wunderground v.1.15,2013-03-03 12:01:00,
2013-03-03 05:06:00,38.8,29.5,30.17,SSE,153,4.0,15.0,69,0.00,,,0.00,Wunderground v.1.15,2013-03-03 12:06:00,
2013-03-03 05:12:00,38.4,29.1,30.18,SSE,158,3.0,15.0,69,0.00,,,0.00,Wunderground v.1.15,2013-03-03 12:12:00,
2013-03-03 05:17:00,38.1,29.2,30.18,South,172,2.0,15.0,70,0.00,,,0.00,Wunderground v.1.15,2013-03-03 12:17:00,
2013-03-03 05:23:00,38.2,29.3,30.17,SSW,204,3.0,15.0,70,0.00,,,0.00,Wunderground v.1.15,2013-03-03 12:23:00,
2013-03-03 05:28:00,38.1,29.2,30.18,SSE,151,3.0,15.0,70,0.00,,,0.00,Wunderground v.1.15,2013-03-03 12:28:00,
2013-03-03 05:33:00,37.9,29.0,30.18,South,182,3.0,15.0,70,0.00,,,0.00,Wunderground v.1.15,2013-03-03 12:33:00,
2013-03-03 05:39:00,37.8,28.5,30.18,SW,219,3.0,15.0,69,0.00,,,0.00,Wunderground v.1.15,2013-03-03 12:39:00,
2013-03-03 05:45:00,37.7,28.4,30.17,SSE,150,3.0,15.0,69,0.00,,,0.00,Wunderground v.1.15,2013-03-03 12:45:00,
2013-03-03 05:50:00,37.8,28.5,30.17,SSE,156,4.0,15.0,69,0.00,,,0.00,Wunderground v.1.15,2013-03-03 12:50:00,
2013-03-03 05:56:00,37.9,28.6,30.17,South,188,5.0,15.0,69,0.00,,,0.00,Wunderground v.1.15,2013-03-03 12:56:00,
2013-03-03 06:01:00,37.9,28.6,30.17,South,179,5.0,5.0,69,0.00,,,0.00,Wunderground v.1.15,2013-03-03 13:01:00,
2013-03-03 06:06:00,37.9,28.6,30.17,South,184,4.0,5.0,69,0.00,,,0.00,Wunderground v.1.15,2013-03-03 13:06:00,
2013-03-03 06:11:00,38.0,28.7,30.17,SSE,167,4.0,4.0,69,0.00,,,0.00,Wunderground v.1.15,2013-03-03 13:11:00,
2013-03-03 06:17:00,38.5,29.2,30.17,SW,219,4.0,4.0,69,0.00,,,0.00,Wunderground v.1.15,2013-03-03 13:17:00,
2013-03-03 06:22:00,38.9,29.2,30.17,SSW,195,3.0,5.0,68,0.00,,,0.00,Wunderground v.1.15,2013-03-03 13:22:00,
2013-03-03 06:28:00,39.4,29.7,30.17,South,177,4.0,5.0,68,0.00,,,0.00,Wunderground v.1.15,2013-03-03 13:28:00,
2013-03-03 06:34:00,39.9,29.5,30.17,SSE,163,4.0,6.0,66,0.00,,,0.00,Wunderground v.1.15,2013-03-03 13:34:00,
2013-03-03 06:39:00,40.4,29.6,30.17,SSE,155,5.0,7.0,65,0.00,,,0.00,Wunderground v.1.15,2013-03-03 13:39:00,
2013-03-03 06:45:00,41.3,29.3,30.17,SSE,167,6.0,7.0,62,0.00,,,0.00,Wunderground v.1.15,2013-03-03 13:45:00,
2013-03-03 06:51:00,41.9,29.0,30.17,South,172,6.0,7.0,60,0.00,,,0.00,Wunderground v.1.15,2013-03-03 13:51:00,
2013-03-03 06:56:00,42.4,29.1,30.17,South,182,6.0,8.0,59,0.00,,,0.00,Wunderground v.1.15,2013-03-03 13:56:00,
2013-03-03 07:01:00,43.0,29.6,30.17,South,173,7.0,7.0,59,0.00,,,0.00,Wunderground v.1.15,2013-03-03 14:01:00,
2013-03-03 07:07:00,43.6,29.4,30.16,South,179,7.0,7.0,57,0.00,,,0.00,Wunderground v.1.15,2013-03-03 14:07:00,
2013-03-03 07:12:00,44.1,29.4,30.16,SSE,164,7.0,7.0,56,0.00,,,0.00,Wunderground v.1.15,2013-03-03 14:12:00,
2013-03-03 07:18:00,44.8,30.0,30.16,SSE,160,6.0,8.0,56,0.00,,,0.00,Wunderground v.1.15,2013-03-03 14:18:00,
2013-03-03 07:23:00,45.2,28.6,30.16,South,172,6.0,10.0,52,0.00,,,0.00,Wunderground v.1.15,2013-03-03 14:23:00,
2013-03-03 07:29:00,45.5,28.9,30.16,SSE,167,7.0,10.0,52,0.00,,,0.00,Wunderground v.1.15,2013-03-03 14:29:00,
2013-03-03 07:35:00,45.6,28.5,30.17,South,173,8.0,10.0,51,0.00,,,0.00,Wunderground v.1.15,2013-03-03 14:35:00,
2013-03-03 07:40:00,45.6,28.0,30.17,SSE,166,9.0,12.0,50,0.00,,,0.00,Wunderground v.1.15,2013-03-03 14:40:00,
2013-03-03 07:46:00,46.0,29.3,30.16,South,171,9.0,12.0,52,0.00,,,0.00,Wunderground v.1.15,2013-03-03 14:46:00,
2013-03-03 07:52:00,46.4,28.8,30.16,SSE,165,8.0,10.0,50,0.00,,,0.00,Wunderground v.1.15,2013-03-03 14:52:00,
2013-03-03 07:58:00,46.8,28.6,30.15,SSE,158,9.0,15.0,49,0.00,,,0.00,Wunderground v.1.15,2013-03-03 14:58:00,
2013-03-03 08:04:00,46.8,28.6,30.15,SSE,162,10.0,14.0,49,0.00,,,0.00,Wunderground v.1.15,2013-03-03 15:04:00,
2013-03-03 08:09:00,47.2,28.5,30.15,South,173,10.0,14.0,48,0.00,,,0.00,Wunderground v.1.15,2013-03-03 15:09:00,
2013-03-03 08:14:00,47.9,28.6,30.15,SSE,157,10.0,14.0,47,0.00,,,0.00,Wunderground v.1.15,2013-03-03 15:14:00,
2013-03-03 08:20:00,48.7,28.8,30.15,East,90,10.0,10.0,46,0.00,,,0.00,Wunderground v.1.15,2013-03-03 15:20:00,
2013-03-03 08:25:00,48.9,28.5,30.15,SSE,166,10.0,11.0,45,0.00,,,0.00,Wunderground v.1.15,2013-03-03 15:25:00,
2013-03-03 08:31:00,49.7,29.2,30.15,South,178,10.0,14.0,45,0.00,,,0.00,Wunderground v.1.15,2013-03-03 15:31:00,
2013-03-03 08:36:00,50.1,29.6,30.15,South,190,10.0,15.0,45,0.00,,,0.00,Wunderground v.1.15,2013-03-03 15:36:00,
2013-03-03 08:42:00,51.3,30.1,30.15,South,173,9.0,14.0,44,0.00,,,0.00,Wunderground v.1.15,2013-03-03 15:42:00,
2013-03-03 08:48:00,51.7,29.3,30.14,SSE,151,9.0,14.0,42,0.00,,,0.00,Wunderground v.1.15,2013-03-03 15:48:00,
2013-03-03 08:54:00,52.1,29.1,30.14,SSE,158,11.0,13.0,41,0.00,,,0.00,Wunderground v.1.15,2013-03-03 15:54:00,
2013-03-03 09:00:00,52.7,29.0,30.14,South,173,11.0,11.0,40,0.00,,,0.00,Wunderground v.1.15,2013-03-03 16:00:00,
2013-03-03 09:06:00,53.6,29.8,30.13,SSE,153,10.0,15.0,40,0.00,,,0.00,Wunderground v.1.15,2013-03-03 16:06:00,
2013-03-03 09:12:00,53.6,30.4,30.13,SSE,164,11.0,16.0,41,0.00,,,0.00,Wunderground v.1.15,2013-03-03 16:12:00,
2013-03-03 09:17:00,53.9,30.1,30.13,SSE,160,11.0,16.0,40,0.00,,,0.00,Wunderground v.1.15,2013-03-03 16:17:00,
2013-03-03 09:22:00,54.5,30.0,30.13,SSE,159,10.0,11.0,39,0.00,,,0.00,Wunderground v.1.15,2013-03-03 16:22:00,
2013-03-03 09:28:00,54.7,30.8,30.13,SSE,160,11.0,13.0,40,0.00,,,0.00,Wunderground v.1.15,2013-03-03 16:28:00,
2013-03-03 09:33:00,56.0,31.4,30.12,South,180,10.0,14.0,39,0.00,,,0.00,Wunderground v.1.15,2013-03-03 16:33:00,
2013-03-03 09:39:00,56.7,30.0,30.11,SSE,162,9.0,16.0,36,0.00,,,0.00,Wunderground v.1.15,2013-03-03 16:39:00,
2013-03-03 09:45:00,56.6,29.9,30.11,South,176,10.0,12.0,36,0.00,,,0.00,Wunderground v.1.15,2013-03-03 16:45:00,
2013-03-03 09:51:00,57.3,31.2,30.11,WSW,250,9.0,10.0,37,0.00,,,0.00,Wunderground v.1.15,2013-03-03 16:51:00,
2013-03-03 09:56:00,58.0,30.5,30.10,SSE,155,8.0,10.0,35,0.00,,,0.00,Wunderground v.1.15,2013-03-03 16:56:00,
2013-03-03 10:02:00,58.4,31.5,30.10,ESE,105,8.0,8.0,36,0.00,,,0.00,Wunderground v.1.15,2013-03-03 17:02:00,
2013-03-03 10:08:00,58.7,31.1,30.09,SSE,165,8.0,11.0,35,0.00,,,0.00,Wunderground v.1.15,2013-03-03 17:08:00,
2013-03-03 10:13:00,58.9,31.3,30.09,SSW,205,8.0,8.0,35,0.00,,,0.00,Wunderground v.1.15,2013-03-03 17:13:00,
2013-03-03 10:18:00,59.3,31.6,30.09,SSE,155,9.0,13.0,35,0.00,,,0.00,Wunderground v.1.15,2013-03-03 17:18:00,
2013-03-03 10:23:00,59.3,30.9,30.08,WNW,298,9.0,15.0,34,0.00,,,0.00,Wunderground v.1.15,2013-03-03 17:23:00,
2013-03-03 10:28:00,59.3,30.9,30.08,South,178,11.0,15.0,34,0.00,,,0.00,Wunderground v.1.15,2013-03-03 17:28:00,
2013-03-03 10:34:00,59.5,31.8,30.08,SSE,158,12.0,14.0,35,0.00,,,0.00,Wunderground v.1.15,2013-03-03 17:34:00,
2013-03-03 10:39:00,59.9,32.2,30.08,North,357,11.0,18.0,35,0.00,,,0.00,Wunderground v.1.15,2013-03-03 17:39:00,
2013-03-03 10:45:00,59.9,31.4,30.07,SSE,167,10.0,17.0,34,0.00,,,0.00,Wunderground v.1.15,2013-03-03 17:45:00,
2013-03-03 10:51:00,60.1,33.0,30.07,SSW,202,12.0,14.0,36,0.00,,,0.00,Wunderground v.1.15,2013-03-03 17:51:00,
2013-03-03 10:56:00,60.7,32.1,30.06,South,171,12.0,16.0,34,0.00,,,0.00,Wunderground v.1.15,2013-03-03 17:56:00,
2013-03-03 11:02:00,61.3,34.1,30.05,South,180,11.0,15.0,36,0.00,,,0.00,Wunderground v.1.15,2013-03-03 18:02:00,
2013-03-03 11:08:00,61.4,32.0,30.05,South,169,11.0,15.0,33,0.00,,,0.00,Wunderground v.1.15,2013-03-03 18:08:00,
2013-03-03 11:14:00,61.8,33.1,30.05,South,173,11.0,14.0,34,0.00,,,0.00,Wunderground v.1.15,2013-03-03 18:14:00,
2013-03-03 11:19:00,62.0,33.3,30.05,SSE,150,11.0,18.0,34,0.00,,,0.00,Wunderground v.1.15,2013-03-03 18:19:00,
2013-03-03 11:24:00,62.0,32.5,30.04,SSE,158,13.0,19.0,33,0.00,,,0.00,Wunderground v.1.15,2013-03-03 18:24:00,
2013-03-03 11:29:00,62.4,32.1,30.04,South,175,12.0,19.0,32,0.00,,,0.00,Wunderground v.1.15,2013-03-03 18:29:00,
2013-03-03 11:35:00,63.0,33.4,30.04,SSE,163,10.0,15.0,33,0.00,,,0.00,Wunderground v.1.15,2013-03-03 18:35:00,
2013-03-03 11:41:00,63.4,33.8,30.03,South,190,12.0,12.0,33,0.00,,,0.00,Wunderground v.1.15,2013-03-03 18:41:00,
2013-03-03 11:47:00,63.4,33.0,30.03,SSE,160,12.0,18.0,32,0.00,,,0.00,Wunderground v.1.15,2013-03-03 18:47:00,
2013-03-03 11:53:00,64.3,33.8,30.03,South,181,10.0,12.0,32,0.00,,,0.00,Wunderground v.1.15,2013-03-03 18:53:00,
2013-03-03 11:58:00,64.5,34.0,30.02,South,191,9.0,13.0,32,0.00,,,0.00,Wunderground v.1.15,2013-03-03 18:58:00,
2013-03-03 12:04:00,64.2,32.9,30.01,East,85,11.0,15.0,31,0.00,,,0.00,Wunderground v.1.15,2013-03-03 19:04:00,
2013-03-03 12:09:00,64.3,33.8,30.01,SSE,156,11.0,16.0,32,0.00,,,0.00,Wunderground v.1.15,2013-03-03 19:09:00,
2013-03-03 12:14:00,64.5,34.0,30.00,SSE,166,12.0,16.0,32,0.00,,,0.00,Wunderground v.1.15,2013-03-03 19:14:00,
2013-03-03 12:19:00,64.7,33.3,30.00,SSE,152,13.0,16.0,31,0.00,,,0.00,Wunderground v.1.15,2013-03-03 19:19:00,
2013-03-03 12:25:00,64.6,35.6,29.99,South,170,13.0,13.0,34,0.00,,,0.00,Wunderground v.1.15,2013-03-03 19:25:00,
2013-03-03 12:30:00,63.9,34.2,29.99,SSE,153,13.0,13.0,33,0.00,,,0.00,Wunderground v.1.15,2013-03-03 19:30:00,
2013-03-03 12:36:00,65.1,35.3,29.98,SSE,162,12.0,14.0,33,0.00,,,0.00,Wunderground v.1.15,2013-03-03 19:36:00,
2013-03-03 12:42:00,65.7,35.8,29.98,SSE,148,11.0,14.0,33,0.00,,,0.00,Wunderground v.1.15,2013-03-03 19:42:00,
2013-03-03 12:48:00,66.4,34.0,29.97,SSW,210,11.0,14.0,30,0.00,,,0.00,Wunderground v.1.15,2013-03-03 19:48:00,
2013-03-03 12:53:00,67.0,36.9,29.97,SSE,148,10.0,14.0,33,0.00,,,0.00,Wunderground v.1.15,2013-03-03 19:53:00,
2013-03-03 12:59:00,66.6,37.3,29.96,SSE,161,11.0,17.0,34,0.00,,,0.00,Wunderground v.1.15,2013-03-03 19:59:00,
2013-03-03 13:05:00,65.9,34.4,29.95,SSE,162,13.0,17.0,31,0.00,,,0.00,Wunderground v.1.15,2013-03-03 20:05:00,
2013-03-03 13:11:00,66.3,36.3,29.95,SE,139,14.0,20.0,33,0.00,,,0.00,Wunderground v.1.15,2013-03-03 20:11:00,
2013-03-03 13:17:00,66.0,36.1,29.95,SSE,160,13.0,20.0,33,0.00,,,0.00,Wunderground v.1.15,2013-03-03 20:17:00,
2013-03-03 13:22:00,66.3,36.3,29.94,SSE,153,12.0,14.0,33,0.00,,,0.00,Wunderground v.1.15,2013-03-03 20:22:00,
2013-03-03 13:28:00,66.3,36.3,29.94,SSE,160,13.0,16.0,33,0.00,,,0.00,Wunderground v.1.15,2013-03-03 20:28:00,
2013-03-03 13:33:00,66.6,36.6,29.94,SSE,156,13.0,13.0,33,0.00,,,0.00,Wunderground v.1.15,2013-03-03 20:33:00,
2013-03-03 13:38:00,66.6,36.6,29.93,South,174,13.0,15.0,33,0.00,,,0.00,Wunderground v.1.15,2013-03-03 20:38:00,
2013-03-03 13:44:00,66.2,34.7,29.92,SSE,151,14.0,15.0,31,0.00,,,0.00,Wunderground v.1.15,2013-03-03 20:44:00,
2013-03-03 13:50:00,66.2,36.2,29.92,SSE,154,15.0,16.0,33,0.00,,,0.00,Wunderground v.1.15,2013-03-03 20:50:00,
2013-03-03 13:55:00,66.1,36.9,29.92,SSE,153,13.0,16.0,34,0.00,,,0.00,Wunderground v.1.15,2013-03-03 20:55:00,
2013-03-03 14:00:00,65.9,36.0,29.92,South,180,13.0,17.0,33,0.00,,,0.00,Wunderground v.1.15,2013-03-03 21:00:00,
2013-03-03 14:06:00,66.4,36.4,29.92,South,173,13.0,17.0,33,0.00,,,0.00,Wunderground v.1.15,2013-03-03 21:06:00,
2013-03-03 14:12:00,66.6,35.0,29.92,South,172,14.0,14.0,31,0.00,,,0.00,Wunderground v.1.15,2013-03-03 21:12:00,
2013-03-03 14:17:00,67.1,37.0,29.91,South,172,13.0,16.0,33,0.00,,,0.00,Wunderground v.1.15,2013-03-03 21:17:00,
2013-03-03 14:22:00,67.4,37.3,29.91,SSE,168,12.0,18.0,33,0.00,,,0.00,Wunderground v.1.15,2013-03-03 21:22:00,
2013-03-03 14:27:00,68.0,37.8,29.90,South,171,13.0,18.0,33,0.00,,,0.00,Wunderground v.1.15,2013-03-03 21:27:00,
2013-03-03 14:33:00,68.1,37.1,29.90,SW,216,13.0,15.0,32,0.00,,,0.00,Wunderground v.1.15,2013-03-03 21:33:00,
2013-03-03 14:38:00,67.9,36.9,29.90,SE,136,13.0,18.0,32,0.00,,,0.00,Wunderground v.1.15,2013-03-03 21:38:00,
2013-03-03 14:43:00,67.7,36.8,29.89,South,172,14.0,19.0,32,0.00,,,0.00,Wunderground v.1.15,2013-03-03 21:43:00,
2013-03-03 14:49:00,67.8,37.6,29.89,SSE,165,13.0,19.0,33,0.00,,,0.00,Wunderground v.1.15,2013-03-03 21:49:00,
2013-03-03 14:55:00,67.4,37.3,29.89,South,189,13.0,16.0,33,0.00,,,0.00,Wunderground v.1.15,2013-03-03 21:55:00,
2013-03-03 15:01:00,67.2,37.9,29.88,South,174,13.0,13.0,34,0.00,,,0.00,Wunderground v.1.15,2013-03-03 22:01:00,
2013-03-03 15:07:00,67.4,38.0,29.88,SSE,153,14.0,19.0,34,0.00,,,0.00,Wunderground v.1.15,2013-03-03 22:07:00,
2013-03-03 15:13:00,67.4,37.3,29.88,South,174,13.0,15.0,33,0.00,,,0.00,Wunderground v.1.15,2013-03-03 22:13:00,
2013-03-03 15:18:00,67.9,37.7,29.88,South,178,14.0,16.0,33,0.00,,,0.00,Wunderground v.1.15,2013-03-03 22:18:00,
2013-03-03 15:23:00,67.7,38.3,29.88,South,171,13.0,21.0,34,0.00,,,0.00,Wunderground v.1.15,2013-03-03 22:23:00,
2013-03-03 15:29:00,67.4,38.0,29.88,South,190,13.0,21.0,34,0.00,,,0.00,Wunderground v.1.15,2013-03-03 22:29:00,
2013-03-03 15:35:00,67.4,38.0,29.87,SSE,160,13.0,16.0,34,0.00,,,0.00,Wunderground v.1.15,2013-03-03 22:35:00,
2013-03-03 15:41:00,67.4,38.8,29.87,South,172,13.0,18.0,35,0.00,,,0.00,Wunderground v.1.15,2013-03-03 22:41:00,
2013-03-03 15:46:00,67.0,39.1,29.87,South,175,12.0,18.0,36,0.00,,,0.00,Wunderground v.1.15,2013-03-03 22:46:00,
2013-03-03 15:52:00,66.4,37.9,29.86,South,174,12.0,14.0,35,0.00,,,0.00,Wunderground v.1.15,2013-03-03 22:52:00,
2013-03-03 15:57:00,66.2,37.7,29.86,South,172,13.0,15.0,35,0.00,,,0.00,Wunderground v.1.15,2013-03-03 22:57:00,
2013-03-03 16:03:00,66.4,38.6,29.86,South,176,13.0,13.0,36,0.00,,,0.00,Wunderground v.1.15,2013-03-03 23:03:00,
2013-03-03 16:09:00,66.2,38.4,29.86,SSW,193,12.0,17.0,36,0.00,,,0.00,Wunderground v.1.15,2013-03-03 23:09:00,
2013-03-03 16:15:00,66.0,38.3,29.86,SSE,165,12.0,15.0,36,0.00,,,0.00,Wunderground v.1.15,2013-03-03 23:15:00,
2013-03-03 16:20:00,66.5,38.7,29.86,ESE,119,12.0,15.0,36,0.00,,,0.00,Wunderground v.1.15,2013-03-03 23:20:00,
2013-03-03 16:26:00,66.6,38.1,29.86,SSE,165,12.0,15.0,35,0.00,,,0.00,Wunderground v.1.15,2013-03-03 23:26:00,
2013-03-03 16:32:00,66.5,38.0,29.86,SE,146,11.0,14.0,35,0.00,,,0.00,Wunderground v.1.15,2013-03-03 23:32:00,
2013-03-03 16:37:00,66.2,37.7,29.86,SSE,162,11.0,14.0,35,0.00,,,0.00,Wunderground v.1.15,2013-03-03 23:37:00,
2013-03-03 16:42:00,66.0,37.5,29.86,SSE,163,11.0,14.0,35,0.00,,,0.00,Wunderground v.1.15,2013-03-03 23:42:00,
2013-03-03 16:48:00,65.8,38.1,29.86,South,169,11.0,14.0,36,0.00,,,0.00,Wunderground v.1.15,2013-03-03 23:48:00,
2013-03-03 16:55:00,65.3,38.3,29.86,SE,146,11.0,11.0,37,0.00,,,0.00,Wunderground v.1.15,2013-03-03 23:55:00,
2013-03-03 17:00:00,65.3,37.6,29.85,SSE,163,10.0,11.0,36,0.00,,,0.00,Wunderground v.1.15,2013-03-04 00:00:00,
2013-03-03 17:06:00,65.3,38.3,29.85,South,187,11.0,13.0,37,0.00,,,0.00,Wunderground v.1.15,2013-03-04 00:06:00,
2013-03-03 17:12:00,64.7,38.5,29.84,South,170,12.0,16.0,38,0.00,,,0.00,Wunderground v.1.15,2013-03-04 00:12:00,
2013-03-03 17:18:00,64.1,39.3,29.84,South,191,12.0,16.0,40,0.00,,,0.00,Wunderground v.1.15,2013-03-04 00:18:00,
2013-03-03 17:23:00,63.8,39.0,29.84,SSE,158,12.0,15.0,40,0.00,,,0.00,Wunderground v.1.15,2013-03-04 00:23:00,
2013-03-03 17:29:00,63.5,38.7,29.84,SSE,164,12.0,15.0,40,0.00,,,0.00,Wunderground v.1.15,2013-03-04 00:29:00,
2013-03-03 17:35:00,63.0,38.9,29.83,South,177,12.0,12.0,41,0.00,,,0.00,Wunderground v.1.15,2013-03-04 00:35:00,
2013-03-03 17:40:00,62.9,38.8,29.83,South,179,12.0,12.0,41,0.00,,,0.00,Wunderground v.1.15,2013-03-04 00:40:00,
2013-03-03 17:46:00,62.7,39.3,29.83,SSE,165,12.0,15.0,42,0.00,,,0.00,Wunderground v.1.15,2013-03-04 00:46:00,
2013-03-03 17:52:00,62.4,39.6,29.83,SSE,161,11.0,12.0,43,0.00,,,0.00,Wunderground v.1.15,2013-03-04 00:52:00,
2013-03-03 17:57:00,62.0,39.2,29.83,South,169,11.0,14.0,43,0.00,,,0.00,Wunderground v.1.15,2013-03-04 00:57:00,
2013-03-03 18:03:00,61.7,39.0,29.82,SSE,158,11.0,17.0,43,0.00,,,0.00,Wunderground v.1.15,2013-03-04 01:03:00,
2013-03-03 18:08:00,61.6,38.9,29.82,SSE,168,11.0,17.0,43,0.00,,,0.00,Wunderground v.1.15,2013-03-04 01:08:00,
2013-03-03 18:13:00,61.4,38.7,29.82,South,171,10.0,11.0,43,0.00,,,0.00,Wunderground v.1.15,2013-03-04 01:13:00,
2013-03-03 18:18:00,61.4,38.7,29.82,SSE,155,10.0,17.0,43,0.00,,,0.00,Wunderground v.1.15,2013-03-04 01:18:00,
2013-03-03 18:24:00,61.3,38.6,29.81,SSE,153,11.0,13.0,43,0.00,,,0.00,Wunderground v.1.15,2013-03-04 01:24:00,
2013-03-03 18:29:00,61.4,38.7,29.81,South,172,11.0,16.0,43,0.00,,,0.00,Wunderground v.1.15,2013-03-04 01:29:00,
2013-03-03 18:35:00,61.3,38.6,29.81,SSE,153,12.0,14.0,43,0.00,,,0.00,Wunderground v.1.15,2013-03-04 01:35:00,
2013-03-03 18:41:00,61.2,39.1,29.82,SSE,162,12.0,14.0,44,0.00,,,0.00,Wunderground v.1.15,2013-03-04 01:41:00,
2013-03-03 18:46:00,61.0,38.9,29.82,SSE,155,11.0,14.0,44,0.00,,,0.00,Wunderground v.1.15,2013-03-04 01:46:00,
2013-03-03 18:52:00,60.9,38.8,29.81,SW,224,10.0,15.0,44,0.00,,,0.00,Wunderground v.1.15,2013-03-04 01:52:00,
2013-03-03 18:57:00,60.7,39.2,29.82,SSE,155,10.0,15.0,45,0.00,,,0.00,Wunderground v.1.15,2013-03-04 01:57:00,
2013-03-03 19:03:00,60.6,39.7,29.82,South,171,10.0,11.0,46,0.00,,,0.00,Wunderground v.1.15,2013-03-04 02:03:00,
2013-03-03 19:08:00,60.4,39.5,29.81,South,184,11.0,14.0,46,0.00,,,0.00,Wunderground v.1.15,2013-03-04 02:08:00,
2013-03-03 19:13:00,60.3,39.4,29.81,SSE,163,10.0,12.0,46,0.00,,,0.00,Wunderground v.1.15,2013-03-04 02:13:00,
2013-03-03 19:19:00,60.3,39.4,29.81,SSE,162,10.0,14.0,46,0.00,,,0.00,Wunderground v.1.15,2013-03-04 02:19:00,
2013-03-03 19:24:00,60.2,39.3,29.81,South,179,10.0,12.0,46,0.00,,,0.00,Wunderground v.1.15,2013-03-04 02:24:00,
2013-03-03 19:29:00,60.1,39.2,29.82,SSE,154,10.0,12.0,46,0.00,,,0.00,Wunderground v.1.15,2013-03-04 02:29:00,
2013-03-03 19:34:00,60.1,39.8,29.82,SSW,194,10.0,13.0,47,0.00,,,0.00,Wunderground v.1.15,2013-03-04 02:34:00,
2013-03-03 19:39:00,60.1,39.8,29.82,South,187,10.0,13.0,47,0.00,,,0.00,Wunderground v.1.15,2013-03-04 02:39:00,
2013-03-03 19:45:00,59.9,40.1,29.82,South,174,9.0,10.0,48,0.00,,,0.00,Wunderground v.1.15,2013-03-04 02:45:00,
2013-03-03 19:50:00,59.8,40.1,29.82,SSE,158,9.0,9.0,48,0.00,,,0.00,Wunderground v.1.15,2013-03-04 02:50:00,
2013-03-03 19:55:00,59.8,40.1,29.82,SSE,153,9.0,9.0,48,0.00,,,0.00,Wunderground v.1.15,2013-03-04 02:55:00,
2013-03-03 20:00:00,59.8,40.1,29.82,SSE,165,9.0,9.0,48,0.00,,,0.00,Wunderground v.1.15,2013-03-04 03:00:00,
2013-03-03 20:05:00,59.9,40.7,29.82,SSW,195,9.0,11.0,49,0.00,,,0.00,Wunderground v.1.15,2013-03-04 03:05:00,
2013-03-03 20:10:00,59.8,40.6,29.82,South,172,9.0,13.0,49,0.00,,,0.00,Wunderground v.1.15,2013-03-04 03:10:00,
2013-03-03 20:15:00,59.9,40.7,29.82,SSE,167,10.0,13.0,49,0.00,,,0.00,Wunderground v.1.15,2013-03-04 03:15:00,
2013-03-03 20:21:00,59.8,40.6,29.82,SSE,159,10.0,11.0,49,0.00,,,0.00,Wunderground v.1.15,2013-03-04 03:21:00,
2013-03-03 20:27:00,59.7,41.0,29.82,SSE,165,9.0,11.0,50,0.00,,,0.00,Wunderground v.1.15,2013-03-04 03:27:00,
2013-03-03 20:33:00,59.7,41.0,29.81,SSE,155,9.0,9.0,50,0.00,,,0.00,Wunderground v.1.15,2013-03-04 03:33:00,
2013-03-03 20:38:00,59.9,41.2,29.81,SSE,155,10.0,13.0,50,0.00,,,0.00,Wunderground v.1.15,2013-03-04 03:38:00,
2013-03-03 20:45:00,60.0,40.8,29.81,South,172,11.0,14.0,49,0.00,,,0.00,Wunderground v.1.15,2013-03-04 03:45:00,
2013-03-03 20:51:00,60.0,41.3,29.80,South,172,11.0,11.0,50,0.00,,,0.00,Wunderground v.1.15,2013-03-04 03:51:00,
2013-03-03 20:57:00,60.0,41.3,29.80,SSE,148,11.0,14.0,50,0.00,,,0.00,Wunderground v.1.15,2013-03-04 03:57:00,
2013-03-03 21:02:00,60.1,41.4,29.80,SSE,158,12.0,15.0,50,0.00,,,0.00,Wunderground v.1.15,2013-03-04 04:02:00,
2013-03-03 21:08:00,60.1,41.4,29.79,SSE,167,12.0,16.0,50,0.00,,,0.00,Wunderground v.1.15,2013-03-04 04:08:00,
2013-03-03 21:13:00,60.1,41.9,29.80,South,171,12.0,15.0,51,0.00,,,0.00,Wunderground v.1.15,2013-03-04 04:13:00,
2013-03-03 21:18:00,60.0,42.3,29.80,South,173,13.0,17.0,52,0.00,,,0.00,Wunderground v.1.15,2013-03-04 04:18:00,
2013-03-03 21:23:00,60.0,42.3,29.80,SSW,212,13.0,20.0,52,0.00,,,0.00,Wunderground v.1.15,2013-03-04 04:23:00,
2013-03-03 21:29:00,59.9,42.7,29.80,South,191,14.0,21.0,53,0.00,,,0.00,Wunderground v.1.15,2013-03-04 04:29:00,
2013-03-03 21:35:00,59.7,43.0,29.80,SSE,168,13.0,19.0,54,0.00,,,0.00,Wunderground v.1.15,2013-03-04 04:35:00,
2013-03-03 21:41:00,59.5,42.8,29.80,South,191,13.0,14.0,54,0.00,,,0.00,Wunderground v.1.15,2013-03-04 04:41:00,
2013-03-03 21:47:00,59.5,43.3,29.80,SSE,162,13.0,15.0,55,0.00,,,0.00,Wunderground v.1.15,2013-03-04 04:47:00,
2013-03-03 21:52:00,59.3,43.1,29.80,South,176,12.0,15.0,55,0.00,,,0.00,Wunderground v.1.15,2013-03-04 04:52:00,
2013-03-03 21:57:00,59.2,43.5,29.80,South,186,12.0,19.0,56,0.00,,,0.00,Wunderground v.1.15,2013-03-04 04:57:00,
2013-03-03 22:00:00,59.2,43.5,29.80,SSE,153,12.0,12.0,56,0.00,,,0.00,Wunderground v.1.15,2013-03-04 05:00:00,
2013-03-03 22:02:00,59.2,43.5,29.80,South,189,12.0,13.0,56,0.00,,,0.00,Wunderground v.1.15,2013-03-04 05:02:00,
2013-03-03 22:05:00,59.1,43.9,29.80,SSE,165,12.0,13.0,57,0.00,,,0.00,Wunderground v.1.15,2013-03-04 05:05:00,
2013-03-03 22:09:00,59.0,43.8,29.80,SW,234,12.0,13.0,57,0.00,,,0.00,Wunderground v.1.15,2013-03-04 05:09:00,
2013-03-03 22:15:00,58.9,44.1,29.80,South,172,11.0,14.0,58,0.00,,,0.00,Wunderground v.1.15,2013-03-04 05:15:00,
2013-03-03 22:20:00,58.7,44.0,29.79,SSE,163,11.0,11.0,58,0.00,,,0.00,Wunderground v.1.15,2013-03-04 05:20:00,
2013-03-03 22:26:00,58.5,44.2,29.79,SSE,165,11.0,14.0,59,0.00,,,0.00,Wunderground v.1.15,2013-03-04 05:26:00,
2013-03-03 22:31:00,58.4,44.6,29.79,SSE,162,11.0,11.0,60,0.00,,,0.00,Wunderground v.1.15,2013-03-04 05:31:00,
2013-03-03 22:37:00,58.4,44.6,29.79,SSE,167,11.0,13.0,60,0.00,,,0.00,Wunderground v.1.15,2013-03-04 05:37:00,
2013-03-03 22:42:00,58.4,45.0,29.78,SSW,195,11.0,12.0,61,0.00,,,0.00,Wunderground v.1.15,2013-03-04 05:42:00,
2013-03-03 22:48:00,58.4,45.0,29.78,South,169,12.0,15.0,61,0.00,,,0.00,Wunderground v.1.15,2013-03-04 05:48:00,
2013-03-03 22:54:00,58.6,45.2,29.78,SSE,167,13.0,17.0,61,0.00,,,0.00,Wunderground v.1.15,2013-03-04 05:54:00,
2013-03-03 22:59:00,58.7,44.8,29.78,South,189,13.0,19.0,60,0.00,,,0.00,Wunderground v.1.15,2013-03-04 05:59:00,
2013-03-03 23:04:00,58.8,44.9,29.78,South,191,12.0,16.0,60,0.00,,,0.00,Wunderground v.1.15,2013-03-04 06:04:00,
2013-03-03 23:12:00,58.8,44.9,29.77,South,178,12.0,12.0,60,0.00,,,0.00,Wunderground v.1.15,2013-03-04 06:12:00,
2013-03-03 23:17:00,58.8,44.9,29.77,South,175,12.0,15.0,60,0.00,,,0.00,Wunderground v.1.15,2013-03-04 06:17:00,
2013-03-03 23:23:00,58.8,44.9,29.77,South,169,12.0,14.0,60,0.00,,,0.00,Wunderground v.1.15,2013-03-04 06:23:00,
2013-03-03 23:29:00,58.8,44.9,29.76,South,184,13.0,22.0,60,0.00,,,0.00,Wunderground v.1.15,2013-03-04 06:29:00,
2013-03-03 23:35:00,58.6,44.8,29.77,South,178,13.0,16.0,60,0.00,,,0.00,Wunderground v.1.15,2013-03-04 06:35:00,
2013-03-03 23:40:00,58.6,44.3,29.76,SSW,193,12.0,16.0,59,0.00,,,0.00,Wunderground v.1.15,2013-03-04 06:40:00,
2013-03-03 23:45:00,58.6,44.3,29.76,South,176,12.0,17.0,59,0.00,,,0.00,Wunderground v.1.15,2013-03-04 06:45:00,
2013-03-03 23:51:00,58.6,43.9,29.76,SSW,196,13.0,17.0,58,0.00,,,0.00,Wunderground v.1.15,2013-03-04 06:51:00,
2013-03-03 23:56:00,58.7,44.0,29.77,SSE,165,14.0,17.0,58,0.00,,,0.00,Wunderground v.1.15,2013-03-04 06:56:00,